[[{"header":{"parameterUnit":"m.s-1","parameterCategory":2,"la1":30.2991,"la2":30.254,"lo1":-89.0895,"lo2":-89.0444,"dy":0.0017,"dx":0.0017,"nx":28,"ny":28,"refTime":"2024-06-04T03:00:00:Z","depth":"0","parameterNumber":2,"parameterNumberName":"U-component_of_CURRENTS"},"data":[0,0,0,0,0,0,0,0,0,0,0,0,0,0,0,0,0,0,0,0,0,0,0,0,0,0,0,0,0,0,0,0,0,0,0,0,0,0,0,0,0,0,0,0,0,0,0,0,0,0,0,0,0,0,0,0,0,0,0.2988,0.2989,0,0.3051,0.3051,0.3052,0.3047,0.3046,0.3045,0.3044,0.3148,0.3151,0.3155,0,0,0,0,0,0,0,0,0,0,0,0,0,0.2893,0.2894,0.2988,0.2989,0.299,0.3051,0.3051,0.3052,0.3047,0.3046,0.3045,0.3044,0.3147,0.3151,0.3155,0,0,0,0,0,0,0,0,0,0,0,0,0,0.2941,0.2895,0.2988,0.2996,0.2998,0.3051,0.3051,0.3052,0.3047,0.3046,0.3045,0.3044,0.3145,0.315,0.3156,0.321,0,0,0.3171,0.3174,0,0,0,0,0,0,0,0,0.2938,0.2944,0.2994,0.2996,0.2998,0.3042,0.3056,0.3108,0.3047,0.3026,0.3044,0.3043,0.3119,0.3126,0.3136,0.3215,0.3219,0.3172,0.3175,0.3177,0.3179,0,0,0,0,0,0,0,0.2935,0.2941,0.3011,0.2995,0.2998,0.3007,0.3012,0.3065,0.3077,0.3028,0.3028,0.3039,0.3119,0.3131,0.3139,0.3221,0.3172,0.3176,0.318,0.3182,0.337,0.3372,0,0,0,0,0,0,0.2931,0.2938,0.3009,0.3013,0.2967,0.301,0.3015,0.3027,0.3075,0.3082,0.304,0.3039,0.3123,0.3133,0.3143,0.3236,0.3177,0.3182,0.3185,0.3369,0.3371,0.3373,0,0,0,0,0,0,0.2929,0.2937,0.3006,0.2978,0.2988,0.3013,0.3026,0.3029,0.3044,0.3085,0.3091,0.3053,0.3123,0.3135,0.3199,0.3239,0.3184,0.3189,0.3366,0.3369,0.3372,0.3406,0,0,0,0,0,0,0.2926,0.2936,0.2945,0.2978,0.299,0.305,0.3027,0.3031,0.3054,0.3052,0.3098,0.3106,0.3123,0.3191,0.3204,0.3245,0.3193,0.3364,0.3368,0.3371,0.3402,0.341,0.3416,0,0,0,0,0,0.2922,0.2944,0.2945,0.2954,0.3001,0.3052,0.3059,0.307,0.3055,0.3076,0.3102,0.3105,0.3223,0.3197,0.3212,0.3255,0.3362,0.3367,0.3371,0.3399,0.3408,0.3416,0,0,0,0,0,0,0.2905,0.2946,0.2948,0.2979,0.3017,0.3052,0.3075,0.3078,0.3113,0.3112,0.3134,0.3146,0.3218,0.3234,0.3205,0.332,0.3292,0.33,0.3309,0.3318,0.3324,0.3331,0.3197,0,0,0,0,0,0.2907,0.2934,0.2974,0.3,0.3021,0.3047,0.3068,0.3079,0.3114,0.3127,0.3156,0.3195,0.3249,0.3278,0.3325,0.3392,0.3398,0.3429,0.3435,0.3441,0.3457,0.3483,0.3493,0.3387,0.3387,0.3387,0,0,0.2907,0.2935,0.2949,0.2999,0.3027,0.3073,0.3057,0.3099,0.3137,0.3137,0.3196,0.3226,0.3273,0.3344,0.3377,0.3361,0.3476,0.3446,0.345,0.3464,0.3489,0.3499,0.3508,0.339,0.3389,0.3389,0,0,0.2931,0.2949,0.2983,0.302,0.307,0.3095,0.3109,0.3152,0.3171,0.3234,0.3243,0.3294,0.3369,0.3409,0.344,0.3516,0.3511,0.353,0.3572,0.3596,0.3605,0.3612,0.3632,0.3642,0.3531,0.3531,0.3531,0,0.2928,0.2975,0.3003,0.3049,0.308,0.3107,0.3152,0.319,0.3245,0.3268,0.3259,0.3368,0.3405,0.3493,0.352,0.3533,0.3539,0.3533,0.3603,0.3611,0.3618,0.3637,0.3646,0.3533,0.3533,0.3533,0.3532,0,0.2982,0.302,0.3048,0.3113,0.3152,0.3198,0.3249,0.3287,0.3307,0.3338,0.3418,0.3464,0.3521,0.3547,0.3564,0.3642,0.3627,0.3606,0.3576,0.363,0.3647,0.3656,0.3536,0.3535,0.3535,0.3534,0,0,0.2971,0.3064,0.3073,0.3101,0.3185,0.3215,0.3292,0.336,0.3402,0.3454,0.351,0.3601,0.3605,0.3641,0.3662,0.3696,0.3755,0.3678,0.3678,0.3688,0.3807,0.3815,0.3825,0.3736,0.3738,0.374,0.3797,0,0.3003,0.3076,0.3128,0.3198,0.3234,0.3288,0.3355,0.3417,0.347,0.3534,0.3584,0.3653,0.3648,0.3678,0.3712,0.3754,0.3781,0.3741,0.3763,0.3765,0.3756,0.3837,0.3781,0.3829,0.3806,0.3808,0.3809,0,0.3034,0.3078,0.3141,0.3221,0.3245,0.3292,0.3378,0.3445,0.3547,0.3596,0.3661,0.3698,0.3783,0.3754,0.3837,0.3808,0.3816,0.3833,0.3835,0.384,0.3791,0.3774,0.3847,0.3796,0.3823,0.3822,0.3821,0,0.2984,0.3083,0.3122,0.3151,0.3254,0.3286,0.3344,0.3447,0.3508,0.363,0.3681,0.377,0.3821,0.3851,0.3898,0.3866,0.3977,0.3925,0.3936,0.3935,0.3895,0.3888,0.3914,0.3971,0.3971,0.3971,0.397,0,0.2986,0.3018,0.3093,0.3112,0.3163,0.3245,0.3318,0.3398,0.3516,0.3591,0.3693,0.3769,0.3847,0.3914,0.3929,0.3984,0.3995,0.3974,0.3965,0.3906,0.39,0.3859,0.3824,0.3973,0.3972,0.3972,0.3971,0,0.293,0.2983,0.3024,0.3111,0.3137,0.3165,0.3285,0.3332,0.3469,0.357,0.3611,0.3777,0.389,0.396,0.404,0.4029,0.3985,0.4079,0.4013,0.3997,0.3942,0.3911,0.3739,0.3616,0.4096,0.4097,0.4098,0,0.2913,0.2925,0.2991,0.3002,0.3039,0.3101,0.3138,0.3283,0.3344,0.3567,0.36,0.3772,0.3885,0.4037,0.4089,0.4145,0.4006,0.4091,0.4023,0.3966,0.3925,0.371,0.3601,0.3976,0.3976,0.3976,0.3975,0,0.2877,0.289,0.292,0.2936,0.2958,0.3002,0.3073,0.3118,0.3292,0.3408,0.3572,0.3694,0.3902,0.3991,0.4105,0.4114,0.3932,0.4084,0.404,0.3866,0.3618,0.3486,0.3907,0.3972,0.3973,0.3973,0.3973,0.3973,0.2839,0.2839,0.2863,0.2875,0.2888,0.2896,0.2907,0.3003,0.3107,0.326,0.3446,0.3607,0.3861,0.4045,0.4025,0.4024,0.3907,0.3951,0.3929,0.3722,0.3571,0.3998,0.4043,0.4044,0.4045,0.4045,0.4045,0,0.2788,0.2793,0.2801,0.2799,0.2771,0.2814,0.2852,0.2853,0.2928,0.3131,0.328,0.3563,0.3711,0.3862,0.4017,0.3926,0.3664,0.382,0.3521,0.3426,0.3854,0.3823,0.3805,0.3806,0.3806,0.3806,0.3806,0.3806,0.276,0.2742,0.2744,0.2686,0.2677,0.2611,0.261,0.2633,0.275,0.2915,0.3089,0.327,0.3663,0.3943,0.3955,0.3847,0.3536,0.3393,0.33,0.3676,0.3685,0.3693,0.3658,0.3605,0.3605,0.2734,0.2729,0.2724]},{"header":{"parameterUnit":"m.s-1","parameterCategory":2,"la1":30.2991,"la2":30.254,"lo1":-89.0895,"lo2":-89.0444,"dy":0.0017,"dx":0.0017,"nx":28,"ny":28,"refTime":"2024-06-04T03:00:00:Z","depth":"0","parameterNumber":3,"parameterNumberName":"V-component_of_CURRENTS"},"data":[0,0,0,0,0,0,0,0,0,0,0,0,0,0,0,0,0,0,0,0,0,0,0,0,0,0,0,0,0,0,0,0,0,0,0,0,0,0,0,0,0,0,0,0,0,0,0,0,0,0,0,0,0,0,0,0,0,0,0.012,0.0119,0,0.0047,0.0046,0.0045,-0.0012,-0.0012,-0.0012,-0.0013,-0.0123,-0.0126,-0.0128,0,0,0,0,0,0,0,0,0,0,0,0,0,0.0152,0.0152,0.012,0.0119,0.0118,0.0047,0.0046,0.0045,-0.0012,-0.0012,-0.0012,-0.0013,-0.0122,-0.0126,-0.0129,0,0,0,0,0,0,0,0,0,0,0,0,0,0.0113,0.0152,0.012,0.0083,0.0079,0.0047,0.0046,0.0044,-0.0011,-0.0012,-0.0012,-0.0013,-0.0121,-0.0125,-0.0129,-0.0143,0,0,-0.0141,-0.0143,0,0,0,0,0,0,0,0,0.0115,0.0111,0.0089,0.0086,0.0081,0.0028,0.0017,-0.0019,-0.0011,0.0021,-0.0013,-0.0013,-0.0074,-0.0082,-0.0097,-0.0149,-0.0153,-0.0142,-0.0144,-0.0146,-0.0147,0,0,0,0,0,0,0,0.0118,0.0114,0.0089,0.0089,0.0084,0.0051,0.0045,0.0009,-0.0026,0.0018,0.0014,0.001,-0.0077,-0.0093,-0.01,-0.0155,-0.0141,-0.0145,-0.0147,-0.0149,-0.022,-0.022,0,0,0,0,0,0,0.0135,0.0117,0.0091,0.0087,0.01,0.0051,0.0045,0.0044,-0.0025,-0.0034,0.001,0.0008,-0.0086,-0.0096,-0.0105,-0.0109,-0.0146,-0.0149,-0.0152,-0.0221,-0.022,-0.022,0,0,0,0,0,0,0.0136,0.0134,0.0094,0.0101,0.0094,0.0052,0.0051,0.0043,0.003,-0.0029,-0.0041,0.0007,-0.0087,-0.0099,-0.0123,-0.0114,-0.0151,-0.0155,-0.0221,-0.0221,-0.022,-0.0129,0,0,0,0,0,0,0.0137,0.0135,0.014,0.0103,0.0095,0.0088,0.0052,0.0042,0.0029,0.0025,-0.0036,-0.0047,-0.0088,-0.0116,-0.0127,-0.0121,-0.0158,-0.0222,-0.0221,-0.022,-0.0132,-0.0125,-0.0119,0,0,0,0,0,0.0139,0.0156,0.0141,0.0137,0.0104,0.0089,0.0082,0.0047,0.003,0.0032,-0.0006,-0.0045,-0.0119,-0.0119,-0.0131,-0.0126,-0.0222,-0.0221,-0.022,-0.0135,-0.0126,-0.0119,0,0,0,0,0,0,0.0172,0.015,0.0133,0.0142,0.0121,0.008,0.008,0.0056,0.0027,0.0024,-0.0035,-0.0049,-0.0069,-0.0108,-0.0106,-0.0145,-0.0179,-0.018,-0.011,-0.0102,-0.0095,-0.0067,-0.0161,0,0,0,0,0,0.0183,0.0189,0.016,0.0166,0.016,0.0121,0.011,0.009,0.006,0.0046,0.0004,-0.004,-0.0075,-0.0094,-0.0132,-0.0149,-0.019,-0.0156,-0.0149,-0.0142,-0.0128,-0.0182,-0.0179,-0.0216,-0.0216,-0.0216,0,0,0.0197,0.0186,0.0188,0.0173,0.0153,0.016,0.0113,0.0108,0.0112,0.0039,0.0031,-0.0017,-0.0074,-0.0093,-0.0106,-0.0123,-0.0153,-0.0141,-0.0135,-0.0124,-0.0181,-0.0177,-0.0174,-0.0216,-0.0216,-0.0216,0,0,0.0238,0.022,0.0243,0.0233,0.0216,0.0193,0.0198,0.0164,0.0146,0.0132,0.008,0.0046,-0.0009,-0.0046,-0.0073,-0.005,-0.0115,-0.0069,-0.0012,-0.0065,-0.0062,-0.006,-0.0104,-0.0107,-0.0066,-0.0066,-0.0065,0,0.0255,0.028,0.0247,0.0267,0.0268,0.0216,0.0243,0.0219,0.0181,0.0174,0.0143,0.0066,0.0014,-0.0008,-0.0003,-0.0034,-0.0073,-0.0037,-0.0055,-0.0054,-0.0053,-0.01,-0.0104,-0.0061,-0.0062,-0.0062,-0.0063,0,0.0314,0.0333,0.0346,0.0355,0.0351,0.0364,0.0332,0.0324,0.0293,0.0264,0.0233,0.0159,0.0116,0.0087,0.0048,0.0028,-0.0003,-0.0039,-0.0071,-0.0044,-0.0095,-0.0101,-0.0055,-0.0056,-0.0058,-0.0059,0,0,0.0358,0.0384,0.039,0.0412,0.0401,0.0406,0.0415,0.0408,0.0422,0.0361,0.0366,0.0288,0.0241,0.0209,0.0145,0.0096,0.006,0.0039,0.0034,0.0003,-0.0051,-0.005,-0.0058,0.0018,0.0018,0.0017,-0.0087,0,0.0416,0.048,0.0472,0.0528,0.0558,0.0521,0.0537,0.0521,0.0491,0.0482,0.0395,0.0371,0.0289,0.0269,0.0208,0.0102,0.0048,0.0092,-0.008,-0.0085,-0.0081,-0.0063,-0.0029,-0.0117,-0.0094,-0.0095,-0.0095,0,0.0481,0.0516,0.0584,0.0624,0.0633,0.0655,0.0672,0.0681,0.0649,0.0625,0.0577,0.0506,0.0433,0.0355,0.0188,0.0219,0.0098,0.0004,-0.0003,-0.0035,-0.0095,-0.0143,-0.0129,-0.0343,-0.0105,-0.0105,-0.0104,0,0.0537,0.0596,0.0654,0.0666,0.0698,0.0721,0.0738,0.0729,0.0756,0.072,0.0731,0.0616,0.0575,0.0409,0.022,0.0199,0.0034,-0.0025,-0.0142,-0.0144,-0.0163,-0.0165,-0.0367,-0.0147,-0.0147,-0.0146,-0.0146,0,0.0604,0.0651,0.0688,0.0721,0.0801,0.0792,0.0866,0.0865,0.0877,0.0934,0.0815,0.0829,0.0586,0.0462,0.0265,0.0062,0.0064,-0.0121,-0.0166,-0.013,-0.0128,-0.0354,-0.0476,-0.015,-0.0149,-0.0149,-0.0148,0,0.0658,0.068,0.0755,0.0806,0.0833,0.0891,0.097,0.1017,0.1019,0.109,0.1087,0.0986,0.0831,0.0585,0.0323,0.0141,-0.0191,-0.0149,-0.0081,-0.0116,-0.0424,-0.054,-0.0776,-0.0889,-0.0298,-0.0298,-0.0299,0,0.0691,0.0736,0.0825,0.0881,0.0911,0.0996,0.1057,0.1089,0.1154,0.1202,0.1246,0.1126,0.1076,0.0696,0.0342,0.0004,-0.021,-0.0189,-0.0229,-0.0426,-0.0591,-0.0673,-0.0758,-0.0229,-0.0228,-0.0228,-0.0228,0,0.076,0.0788,0.0854,0.0974,0.1053,0.1154,0.1252,0.1333,0.1387,0.1459,0.1533,0.1502,0.1146,0.0825,0.0359,0.0119,-0.0332,-0.0197,-0.0428,-0.0566,-0.0644,-0.0777,-0.0178,-0.0227,-0.0227,-0.0227,-0.0227,-0.0227,0.0812,0.0875,0.0966,0.108,0.1179,0.1316,0.1423,0.1539,0.1688,0.1829,0.1764,0.1781,0.1297,0.0669,0.0295,-0.0332,-0.0363,-0.0517,-0.0645,-0.0714,-0.0811,-0.0195,-0.0276,-0.0277,-0.0277,-0.0277,-0.0278,0,0.0885,0.0958,0.1067,0.1213,0.1333,0.1372,0.1553,0.1679,0.1887,0.2013,0.2083,0.1889,0.1282,0.0661,-0.0193,-0.0676,-0.0868,-0.0943,-0.1074,-0.1145,-0.0619,-0.0602,-0.0723,-0.0723,-0.0723,-0.0722,-0.0722,-0.0722,0.0928,0.1046,0.1105,0.1323,0.1426,0.1605,0.1722,0.1917,0.2064,0.2263,0.2309,0.229,0.1854,0.0247,-0.0856,-0.1129,-0.1473,-0.1541,-0.1748,-0.1406,-0.1376,-0.1348,-0.1362,-0.164,-0.1641,-0.22,-0.2206,-0.2211]}],[{"header":{"parameterUnit":"m.s-1","parameterCategory":2,"la1":30.2991,"la2":30.254,"lo1":-89.0895,"lo2":-89.0444,"dy":0.0017,"dx":0.0017,"nx":28,"ny":28,"refTime":"2024-06-04T03:00:00:Z","depth":"2","parameterNumber":2,"parameterNumberName":"U-component_of_CURRENTS"},"data":[0,0,0,0,0,0,0,0,0,0,0,0,0,0,0,0,0,0,0,0,0,0,0,0,0,0,0,0,0,0,0,0,0,0,0,0,0,0,0,0,0,0,0,0,0,0,0,0,0,0,0,0,0,0,0,0,0,0,0.2858,0.2858,0,0.2917,0.2917,0.2918,0.2921,0.2921,0.292,0.292,0.3007,0.3009,0.3012,0,0,0,0,0,0,0,0,0,0,0,0,0,0.2768,0.277,0.2858,0.2859,0.2859,0.2917,0.2917,0.2918,0.2921,0.2921,0.292,0.292,0.3006,0.3009,0.3012,0,0,0,0,0,0,0,0,0,0,0,0,0,0.2813,0.277,0.2857,0.287,0.2872,0.2916,0.2917,0.2918,0.2921,0.2921,0.292,0.2919,0.3005,0.3009,0.3013,0.3052,0,0,0.3025,0.3027,0,0,0,0,0,0,0,0,0.281,0.2816,0.2867,0.2869,0.2871,0.2913,0.2918,0.2965,0.2922,0.29,0.292,0.2919,0.298,0.2986,0.2995,0.3056,0.3059,0.3026,0.3028,0.303,0.3031,0,0,0,0,0,0,0,0.2807,0.2813,0.2878,0.2868,0.2871,0.288,0.2885,0.2926,0.2942,0.2902,0.2903,0.2914,0.2981,0.2991,0.2997,0.3061,0.3026,0.3029,0.3032,0.3033,0.3179,0.318,0,0,0,0,0,0,0.2805,0.2811,0.2877,0.288,0.2841,0.2882,0.2888,0.2898,0.2941,0.2947,0.2914,0.2914,0.2984,0.2992,0.3,0.3087,0.303,0.3034,0.3036,0.3177,0.3179,0.318,0,0,0,0,0,0,0.2803,0.281,0.2874,0.2849,0.2858,0.2884,0.2896,0.29,0.2919,0.295,0.2956,0.293,0.2984,0.2994,0.3044,0.3089,0.3036,0.3039,0.3175,0.3178,0.318,0.3236,0,0,0,0,0,0,0.28,0.2809,0.2819,0.2849,0.2859,0.2914,0.2897,0.2902,0.2927,0.2927,0.2967,0.2973,0.2984,0.3038,0.3048,0.3094,0.3042,0.3174,0.3176,0.3179,0.3233,0.324,0.3246,0,0,0,0,0,0.2796,0.2814,0.2819,0.2828,0.2871,0.2916,0.2923,0.2937,0.2929,0.2949,0.2968,0.2972,0.3062,0.3043,0.3054,0.3102,0.3172,0.3176,0.3179,0.323,0.3239,0.3246,0,0,0,0,0,0,0.2779,0.2817,0.2823,0.2851,0.2887,0.2918,0.294,0.2946,0.2976,0.2977,0.2993,0.3003,0.3068,0.3072,0.305,0.3149,0.3118,0.3123,0.3152,0.3161,0.3168,0.3172,0.3046,0,0,0,0,0,0.2781,0.2807,0.2844,0.2869,0.2889,0.2916,0.2935,0.2948,0.2977,0.2989,0.3015,0.3045,0.309,0.3112,0.3151,0.3205,0.3208,0.3241,0.3247,0.3253,0.3263,0.3293,0.3304,0.3191,0.3191,0.3191,0,0,0.2781,0.2807,0.2821,0.2868,0.2895,0.2934,0.2926,0.2966,0.3,0.2997,0.305,0.3078,0.311,0.3172,0.3201,0.3181,0.3289,0.3257,0.3262,0.3269,0.3298,0.3309,0.3319,0.3193,0.3192,0.3192,0,0,0.2798,0.282,0.2848,0.2883,0.2933,0.2955,0.297,0.3011,0.3033,0.3087,0.3096,0.3144,0.3204,0.3237,0.3261,0.3328,0.3329,0.3343,0.3381,0.341,0.3419,0.3428,0.3452,0.3462,0.334,0.334,0.334,0,0.2796,0.2836,0.2865,0.2905,0.2935,0.2966,0.3005,0.304,0.3091,0.3116,0.3111,0.3209,0.3237,0.3315,0.334,0.3347,0.3357,0.3347,0.3419,0.3427,0.3435,0.3458,0.3468,0.3343,0.3343,0.3343,0.3343,0,0.2835,0.2871,0.2896,0.2954,0.299,0.3034,0.3083,0.3121,0.3147,0.3179,0.3259,0.3298,0.3349,0.3374,0.3383,0.3461,0.3449,0.3428,0.3397,0.345,0.347,0.348,0.3348,0.3347,0.3346,0.3345,0,0,0.2819,0.2904,0.2914,0.294,0.3019,0.3046,0.3116,0.3181,0.3226,0.3278,0.3337,0.3419,0.3434,0.3462,0.3483,0.3515,0.3584,0.3499,0.3499,0.3522,0.365,0.3638,0.3647,0.3574,0.3576,0.3577,0.3645,0,0.2842,0.2906,0.2953,0.3015,0.3048,0.3103,0.3166,0.3227,0.3284,0.3351,0.3402,0.3476,0.347,0.3508,0.3539,0.3583,0.3612,0.3568,0.3597,0.3598,0.358,0.3659,0.3398,0.3436,0.3654,0.3656,0.3657,0,0.2862,0.2902,0.296,0.3036,0.3058,0.3103,0.3192,0.3256,0.336,0.3413,0.3484,0.3526,0.361,0.3584,0.367,0.3642,0.3654,0.3671,0.3673,0.3649,0.3605,0.3418,0.3445,0.3673,0.3672,0.367,0.3669,0,0.2813,0.2903,0.2941,0.297,0.3066,0.3102,0.316,0.3266,0.3328,0.3455,0.3511,0.3602,0.3661,0.3693,0.374,0.371,0.3821,0.3774,0.3769,0.3768,0.3546,0.3523,0.3821,0.3821,0.3821,0.3821,0.3821,0,0.2809,0.284,0.2919,0.2937,0.2993,0.3072,0.3151,0.3231,0.3352,0.3429,0.3533,0.3608,0.3692,0.3759,0.3773,0.3821,0.3844,0.3802,0.3796,0.356,0.3538,0.3736,0.3725,0.3823,0.3823,0.3822,0.3822,0,0.2753,0.2808,0.2849,0.2938,0.2968,0.3004,0.313,0.3181,0.3321,0.3424,0.3468,0.363,0.374,0.3809,0.389,0.387,0.391,0.391,0.3638,0.36,0.3823,0.3814,0.3911,0.3911,0.3912,0.3912,0.3912,0,0.2735,0.2746,0.2823,0.2839,0.2881,0.2953,0.2998,0.3144,0.3207,0.3425,0.3457,0.3628,0.3725,0.3865,0.3885,0.3929,0.3948,0.3687,0.3587,0.3855,0.3838,0.3829,0.382,0.3307,0.3302,0.3298,0.3295,0,0.269,0.2711,0.274,0.2778,0.2812,0.2861,0.2942,0.2984,0.3158,0.3267,0.342,0.3528,0.3702,0.3669,0.3757,0.3726,0.3665,0.3612,0.3958,0.3344,0.3295,0.3276,0.3285,0.326,0.3264,0.3266,0.3268,0.327,0.2651,0.2654,0.2686,0.2715,0.2743,0.2761,0.277,0.2858,0.2954,0.3077,0.3266,0.335,0.3447,0.3476,0.3391,0.3329,0.357,0.3395,0.3401,0.3413,0.3351,0.3308,0.3263,0.3266,0.3269,0.3271,0.3274,0,0.2595,0.261,0.2625,0.2641,0.2615,0.2682,0.2721,0.2701,0.2753,0.2907,0.303,0.289,0.2927,0.2992,0.2884,0.2916,0.2814,0.2765,0.2607,0.2649,0.2685,0.2577,0.2287,0.2283,0.2279,0.2276,0,0,0.2574,0.2555,0.2559,0.2506,0.252,0.2472,0.247,0.2457,0.2531,0.2532,0.2573,0.2831,0.2978,0.2607,0.258,0.2419,0.2492,0.2317,0.313,0.2993,0.3021,0.3098,0.2988,0,0,0,0,0]},{"header":{"parameterUnit":"m.s-1","parameterCategory":2,"la1":30.2991,"la2":30.254,"lo1":-89.0895,"lo2":-89.0444,"dy":0.0017,"dx":0.0017,"nx":28,"ny":28,"refTime":"2024-06-04T03:00:00:Z","depth":"2","parameterNumber":3,"parameterNumberName":"V-component_of_CURRENTS"},"data":[0,0,0,0,0,0,0,0,0,0,0,0,0,0,0,0,0,0,0,0,0,0,0,0,0,0,0,0,0,0,0,0,0,0,0,0,0,0,0,0,0,0,0,0,0,0,0,0,0,0,0,0,0,0,0,0,0,0,0.0037,0.0037,0,-0.003,-0.0031,-0.0032,-0.0086,-0.0086,-0.0086,-0.0087,-0.0199,-0.0202,-0.0205,0,0,0,0,0,0,0,0,0,0,0,0,0,0.0065,0.0065,0.0037,0.0037,0.0036,-0.003,-0.0031,-0.0033,-0.0086,-0.0086,-0.0086,-0.0087,-0.0198,-0.0202,-0.0205,0,0,0,0,0,0,0,0,0,0,0,0,0,0.0029,0.0065,0.0037,0.0003,-0.0,-0.003,-0.0032,-0.0033,-0.0086,-0.0086,-0.0087,-0.0087,-0.0197,-0.0201,-0.0205,-0.0221,0,0,-0.0218,-0.0219,0,0,0,0,0,0,0,0,0.0031,0.0028,0.0009,0.0006,0.0002,-0.0048,-0.0063,-0.0097,-0.0085,-0.0056,-0.0087,-0.0087,-0.0151,-0.0159,-0.0173,-0.0226,-0.0231,-0.0218,-0.022,-0.0222,-0.0223,0,0,0,0,0,0,0,0.0034,0.003,0.0008,0.0008,0.0004,-0.0028,-0.0033,-0.007,-0.0102,-0.0058,-0.0062,-0.0066,-0.0154,-0.0169,-0.0176,-0.0233,-0.0218,-0.0221,-0.0224,-0.0226,-0.0298,-0.0297,0,0,0,0,0,0,0.005,0.0033,0.001,0.0006,0.0018,-0.0027,-0.0034,-0.0034,-0.0101,-0.0111,-0.0065,-0.0068,-0.0162,-0.0172,-0.0181,-0.0185,-0.0222,-0.0226,-0.0228,-0.0298,-0.0297,-0.0297,0,0,0,0,0,0,0.0051,0.0049,0.0013,0.0019,0.0013,-0.0027,-0.0027,-0.0035,-0.0046,-0.0105,-0.0117,-0.0067,-0.0163,-0.0175,-0.02,-0.0191,-0.0228,-0.0231,-0.0299,-0.0298,-0.0297,-0.0207,0,0,0,0,0,0,0.0052,0.005,0.0055,0.0021,0.0013,0.0008,-0.0026,-0.0036,-0.0047,-0.0051,-0.0111,-0.0122,-0.0164,-0.0193,-0.0204,-0.0197,-0.0235,-0.0299,-0.0298,-0.0297,-0.021,-0.0203,-0.0196,0,0,0,0,0,0.0054,0.007,0.0056,0.0053,0.0023,0.0009,0.0002,-0.003,-0.0046,-0.0043,-0.0081,-0.012,-0.0195,-0.0196,-0.0209,-0.0203,-0.03,-0.0299,-0.0298,-0.0213,-0.0204,-0.0197,0,0,0,0,0,0,0.0084,0.0065,0.0049,0.0058,0.0039,0.0001,0.0001,-0.0021,-0.0049,-0.0053,-0.0112,-0.0125,-0.0146,-0.0184,-0.0184,-0.0221,-0.0255,-0.0256,-0.0187,-0.0179,-0.0172,-0.0146,-0.0238,0,0,0,0,0,0.0095,0.0101,0.0075,0.0081,0.0076,0.004,0.003,0.0011,-0.0018,-0.0031,-0.0073,-0.0116,-0.0151,-0.0171,-0.0209,-0.0227,-0.0267,-0.0232,-0.0225,-0.0219,-0.0206,-0.0259,-0.0255,-0.0293,-0.0293,-0.0293,0,0,0.0108,0.0099,0.0102,0.0088,0.0069,0.0077,0.0033,0.0029,0.0032,-0.0039,-0.0047,-0.0093,-0.015,-0.0169,-0.0183,-0.02,-0.023,-0.0218,-0.0212,-0.0203,-0.0257,-0.0253,-0.025,-0.0292,-0.0292,-0.0293,0,0,0.0147,0.0131,0.0152,0.0144,0.0129,0.0108,0.0113,0.0082,0.0065,0.0052,0.0002,-0.0031,-0.0086,-0.0122,-0.0149,-0.0126,-0.019,-0.0144,-0.009,-0.014,-0.0137,-0.0135,-0.0179,-0.0181,-0.0141,-0.0141,-0.0141,0,0.0163,0.0186,0.0156,0.0175,0.0177,0.013,0.0155,0.0133,0.0098,0.0091,0.0063,-0.0012,-0.0062,-0.0085,-0.0079,-0.011,-0.0148,-0.0114,-0.013,-0.0129,-0.0128,-0.0174,-0.0178,-0.0136,-0.0137,-0.0137,-0.0138,0,0.0217,0.0235,0.0248,0.0257,0.0254,0.0267,0.0239,0.0232,0.0204,0.0177,0.0148,0.0078,0.0036,0.0009,-0.0029,-0.0048,-0.0079,-0.0114,-0.0147,-0.0119,-0.0169,-0.0175,-0.013,-0.0132,-0.0133,-0.0134,0,0,0.0256,0.0282,0.0288,0.0309,0.03,0.0307,0.0316,0.031,0.0323,0.0268,0.0272,0.0199,0.0156,0.0124,0.0064,0.0017,-0.0017,-0.0039,-0.0044,-0.0074,-0.0125,-0.0132,-0.014,-0.0057,-0.0058,-0.0058,-0.016,0,0.0308,0.0369,0.0363,0.0416,0.0445,0.0413,0.0429,0.0415,0.0389,0.038,0.0299,0.0277,0.0201,0.0184,0.0125,0.0022,-0.0029,0.0014,-0.0155,-0.0159,-0.0163,-0.0145,-0.0116,-0.0203,-0.0167,-0.0168,-0.0168,0,0.0367,0.0401,0.0466,0.0506,0.0515,0.0536,0.0555,0.0566,0.0536,0.0514,0.047,0.0404,0.0335,0.0263,0.0102,0.0132,0.0017,-0.0072,-0.0079,-0.0119,-0.0176,-0.0228,-0.0216,-0.0179,-0.0178,-0.0177,-0.0177,0,0.0418,0.0475,0.0532,0.0544,0.0576,0.0599,0.0617,0.061,0.0638,0.0605,0.0615,0.0507,0.0468,0.0311,0.013,0.0113,-0.0051,-0.0104,-0.0221,-0.0223,-0.0247,-0.0249,-0.022,-0.022,-0.0219,-0.0219,-0.0219,0,0.0477,0.0524,0.0563,0.0594,0.0672,0.0666,0.0739,0.0739,0.0752,0.0804,0.0695,0.0703,0.0477,0.0356,0.017,-0.0029,-0.0025,-0.0202,-0.0246,-0.0214,-0.0213,-0.0232,-0.0232,-0.0223,-0.0222,-0.0221,-0.0221,0,0.0525,0.0549,0.0622,0.0674,0.0702,0.0758,0.0838,0.0883,0.0886,0.0951,0.0949,0.0849,0.0696,0.0464,0.0212,0.0041,-0.0162,-0.0239,-0.0179,-0.0213,-0.0315,-0.031,-0.0384,-0.0385,-0.0385,-0.0386,-0.0387,0,0.0553,0.0596,0.0689,0.0744,0.0773,0.0858,0.0918,0.0952,0.1011,0.1051,0.1088,0.0969,0.0907,0.0539,0.0208,-0.0113,-0.0158,-0.0294,-0.0326,-0.0294,-0.0331,-0.0324,-0.0317,-0.033,-0.033,-0.033,-0.033,0,0.0606,0.0638,0.0699,0.0822,0.0899,0.1002,0.1095,0.1164,0.1216,0.1272,0.1325,0.1284,0.0949,0.0627,0.0189,-0.0025,-0.0241,-0.0305,-0.0294,-0.0281,-0.0249,-0.0282,-0.0277,-0.033,-0.033,-0.033,-0.033,-0.033,0.0645,0.0703,0.079,0.0906,0.1008,0.1138,0.1229,0.1321,0.1442,0.1536,0.15,0.1456,0.1086,0.0534,0.0144,-0.0256,-0.0241,-0.0382,-0.038,-0.0378,-0.0342,-0.0312,-0.0399,-0.0399,-0.0399,-0.04,-0.04,0,0.0695,0.0766,0.0869,0.101,0.1119,0.1182,0.1341,0.1421,0.1567,0.1657,0.1703,0.138,0.1021,0.0601,0.0001,-0.0355,-0.0384,-0.0457,-0.0424,-0.042,-0.0418,-0.0383,-0.0452,-0.0453,-0.0454,-0.0455,0,0,0.0727,0.0824,0.0879,0.1071,0.1184,0.1353,0.1455,0.1575,0.167,0.1738,0.1734,0.1682,0.1169,0.0729,0.0231,-0.0115,-0.0179,-0.0173,-0.0091,0.0011,0.0018,-0.0333,-0.0269,0,0,0,0,0]}],[{"header":{"parameterUnit":"m.s-1","parameterCategory":2,"la1":30.2991,"la2":30.254,"lo1":-89.0895,"lo2":-89.0444,"dy":0.0017,"dx":0.0017,"nx":28,"ny":28,"refTime":"2024-06-04T03:00:00:Z","depth":"4","parameterNumber":2,"parameterNumberName":"U-component_of_CURRENTS"},"data":[0,0,0,0,0,0,0,0,0,0,0,0,0,0,0,0,0,0,0,0,0,0,0,0,0,0,0,0,0,0,0,0,0,0,0,0,0,0,0,0,0,0,0,0,0,0,0,0,0,0,0,0,0,0,0,0,0,0,0.1888,0.1889,0,0.1975,0.1976,0.1976,0.2042,0.2043,0.2044,0.2045,0.2088,0.2089,0.2089,0,0,0,0,0,0,0,0,0,0,0,0,0,0.1775,0.1777,0.1888,0.189,0.1891,0.1975,0.1976,0.1977,0.2042,0.2043,0.2044,0.2045,0.2088,0.2089,0.2089,0,0,0,0,0,0,0,0,0,0,0,0,0,0.1837,0.1777,0.1888,0.1936,0.1941,0.1974,0.1976,0.1977,0.2042,0.2043,0.2044,0.2046,0.2088,0.2088,0.2089,0.2067,0,0,0.2091,0.2091,0,0,0,0,0,0,0,0,0.1833,0.1841,0.1927,0.1932,0.1938,0.2001,0.1952,0.2006,0.2042,0.2001,0.2045,0.2046,0.2056,0.2059,0.207,0.2069,0.2071,0.2091,0.2091,0.2091,0.2091,0,0,0,0,0,0,0,0.1829,0.1837,0.192,0.1929,0.1935,0.1951,0.1961,0.1962,0.2017,0.2004,0.201,0.2023,0.2058,0.2069,0.2071,0.2072,0.2091,0.2091,0.2092,0.2092,0.2191,0.2193,0,0,0,0,0,0,0.1823,0.1833,0.1917,0.1923,0.1891,0.1952,0.1963,0.1978,0.2018,0.2027,0.2022,0.2026,0.2067,0.207,0.2073,0.2164,0.2091,0.2092,0.2092,0.2189,0.2191,0.2194,0,0,0,0,0,0,0.182,0.1829,0.1914,0.1882,0.1894,0.1953,0.1969,0.1979,0.2032,0.2033,0.204,0.207,0.2068,0.2072,0.2121,0.2162,0.2092,0.2093,0.2186,0.2189,0.2193,0.2273,0,0,0,0,0,0,0.1816,0.1827,0.1854,0.1881,0.1896,0.1961,0.1968,0.198,0.2036,0.2044,0.2075,0.2078,0.207,0.212,0.2121,0.2162,0.2093,0.2183,0.2187,0.2192,0.2268,0.2279,0.2289,0,0,0,0,0,0.1812,0.1835,0.1855,0.1867,0.1925,0.1963,0.1972,0.2015,0.2038,0.2067,0.2098,0.208,0.2148,0.2122,0.2123,0.2165,0.2181,0.2186,0.2191,0.2263,0.2277,0.2289,0,0,0,0,0,0,0.1801,0.1845,0.1867,0.1905,0.1946,0.1976,0.2012,0.2038,0.2085,0.2105,0.2104,0.2109,0.2168,0.2157,0.2128,0.2208,0.2163,0.2169,0.2218,0.2231,0.2241,0.2241,0.2093,0,0,0,0,0,0.181,0.1843,0.1883,0.1919,0.1942,0.1985,0.2014,0.2045,0.2081,0.2106,0.213,0.2157,0.2182,0.2201,0.2217,0.2255,0.2258,0.2285,0.2296,0.2305,0.2308,0.2361,0.2376,0.2211,0.2211,0.2211,0,0,0.1816,0.1847,0.1867,0.192,0.1956,0.1991,0.2007,0.2064,0.2103,0.2099,0.2172,0.2195,0.2202,0.2253,0.2278,0.2254,0.2356,0.2311,0.2319,0.2317,0.2368,0.2384,0.2398,0.2214,0.2214,0.2213,0,0,0.1827,0.1874,0.1901,0.1938,0.2002,0.2027,0.2052,0.2108,0.2152,0.2212,0.2228,0.2281,0.2314,0.2336,0.2345,0.2422,0.241,0.2434,0.2487,0.2539,0.2553,0.2565,0.2596,0.261,0.2439,0.244,0.244,0,0.1837,0.1875,0.1916,0.1951,0.1989,0.2045,0.2082,0.2127,0.2197,0.2237,0.2249,0.234,0.235,0.241,0.2447,0.2444,0.2469,0.2436,0.2552,0.2564,0.2575,0.2604,0.2618,0.2444,0.2444,0.2443,0.2443,0,0.1853,0.1903,0.1926,0.1986,0.2029,0.2078,0.2137,0.22,0.2258,0.2301,0.2395,0.2427,0.2482,0.2499,0.2497,0.2586,0.2577,0.2559,0.2517,0.2597,0.2622,0.2636,0.2451,0.2449,0.2448,0.2446,0,0,0.1821,0.1919,0.1931,0.197,0.2059,0.2089,0.217,0.2249,0.2318,0.2392,0.2478,0.2537,0.2578,0.2593,0.2612,0.2659,0.2762,0.2654,0.2655,0.2679,0.2879,0.2705,0.2702,0.2775,0.2778,0.278,0.2867,0,0.1828,0.1891,0.1943,0.2015,0.2053,0.2136,0.2205,0.2288,0.2373,0.2471,0.2531,0.262,0.2607,0.2664,0.2709,0.2757,0.2802,0.2739,0.2803,0.2804,0.2634,0.2713,0.2789,0.2877,0.288,0.2883,0.2884,0,0.1818,0.1867,0.1935,0.204,0.2068,0.2126,0.2256,0.2331,0.247,0.2543,0.2641,0.2699,0.2799,0.2776,0.2885,0.2854,0.2877,0.2896,0.29,0.2714,0.2654,0.278,0.2908,0.2907,0.2905,0.2903,0.2902,0,0.1754,0.1857,0.1915,0.1951,0.2076,0.2141,0.2223,0.2361,0.2443,0.2614,0.2691,0.2803,0.2887,0.2938,0.2983,0.296,0.3085,0.3049,0.2906,0.2894,0.2987,0.2973,0.3119,0.3119,0.3118,0.3118,0.3118,0,0.1721,0.1771,0.1901,0.1933,0.2024,0.2125,0.2246,0.235,0.2507,0.2602,0.2737,0.2814,0.2939,0.3015,0.3031,0.3007,0.3124,0.2925,0.2909,0.302,0.3009,0.2997,0.2982,0.3121,0.3121,0.312,0.3119,0,0.1638,0.1725,0.18,0.1944,0.1998,0.2069,0.225,0.2327,0.2497,0.263,0.2693,0.2864,0.2963,0.3043,0.314,0.3052,0.3058,0.3018,0.3142,0.313,0.2821,0.2809,0.2864,0.2859,0.2854,0.285,0.2847,0,0.1596,0.1629,0.179,0.1844,0.1921,0.2046,0.2128,0.2309,0.2388,0.2624,0.2663,0.2836,0.2924,0.2915,0.3013,0.3032,0.2992,0.2972,0.2878,0.2818,0.2798,0.2793,0.2788,0.284,0.2839,0.2838,0.2836,0,0.1515,0.1592,0.1655,0.1769,0.1865,0.1955,0.2087,0.2125,0.2328,0.2498,0.2581,0.2644,0.2747,0.2808,0.2848,0.285,0.2972,0.2924,0.2932,0.2843,0.279,0.2773,0.2773,0.2821,0.2823,0.2824,0.2825,0,0.1459,0.1484,0.1581,0.1669,0.1777,0.1826,0.1914,0.2004,0.2103,0.2353,0.2375,0.2554,0.272,0.2714,0.2749,0.2745,0.2696,0.2596,0.262,0.2638,0.2522,0.2418,0.2331,0,0,0,0,0,0.1391,0.1406,0.1472,0.1554,0.1651,0.172,0.1863,0.1952,0.214,0.2142,0.2254,0.2339,0.241,0.2502,0.2452,0.2643,0.27,0.2572,0.2595,0.2734,0.2752,0.2634,0,0,0,0,0,0,0.1343,0.1397,0.1422,0.1433,0.1469,0.156,0.1644,0.1776,0.1787,0.199,0.204,0.22,0.23,0.2416,0.2408,0.2435,0.2401,0.2688,0.2682,0.2723,0.274,0.2754,0.264,0,0,0,0,0]},{"header":{"parameterUnit":"m.s-1","parameterCategory":2,"la1":30.2991,"la2":30.254,"lo1":-89.0895,"lo2":-89.0444,"dy":0.0017,"dx":0.0017,"nx":28,"ny":28,"refTime":"2024-06-04T03:00:00:Z","depth":"4","parameterNumber":3,"parameterNumberName":"V-component_of_CURRENTS"},"data":[0,0,0,0,0,0,0,0,0,0,0,0,0,0,0,0,0,0,0,0,0,0,0,0,0,0,0,0,0,0,0,0,0,0,0,0,0,0,0,0,0,0,0,0,0,0,0,0,0,0,0,0,0,0,0,0,0,0,0.0014,0.0013,0,-0.0031,-0.0031,-0.0032,-0.0074,-0.0074,-0.0075,-0.0075,-0.0158,-0.016,-0.0162,0,0,0,0,0,0,0,0,0,0,0,0,0,0.0026,0.0026,0.0014,0.0013,0.0013,-0.0031,-0.0032,-0.0032,-0.0074,-0.0074,-0.0075,-0.0075,-0.0158,-0.016,-0.0162,0,0,0,0,0,0,0,0,0,0,0,0,0,0.0003,0.0026,0.0014,-0.0012,-0.0015,-0.0031,-0.0032,-0.0032,-0.0074,-0.0074,-0.0075,-0.0076,-0.0157,-0.016,-0.0163,-0.0169,0,0,-0.0171,-0.0172,0,0,0,0,0,0,0,0,0.0005,0.0003,-0.0008,-0.001,-0.0013,-0.0046,-0.0058,-0.0079,-0.0074,-0.0053,-0.0075,-0.0076,-0.0123,-0.0129,-0.0138,-0.0173,-0.0176,-0.0171,-0.0173,-0.0174,-0.0175,0,0,0,0,0,0,0,0.0006,0.0004,-0.0006,-0.0008,-0.0011,-0.0034,-0.0038,-0.0062,-0.0086,-0.0055,-0.0058,-0.006,-0.0125,-0.0135,-0.014,-0.0177,-0.0171,-0.0174,-0.0176,-0.0177,-0.0224,-0.0224,0,0,0,0,0,0,0.0018,0.0006,-0.0004,-0.0007,-0.0004,-0.0033,-0.0038,-0.0036,-0.0085,-0.0093,-0.0059,-0.0062,-0.013,-0.0137,-0.0143,-0.0144,-0.0174,-0.0177,-0.0179,-0.0225,-0.0224,-0.0224,0,0,0,0,0,0,0.0018,0.0018,-0.0002,-0.0,-0.0004,-0.0032,-0.0031,-0.0037,-0.0046,-0.0088,-0.0096,-0.0062,-0.013,-0.0139,-0.0157,-0.0148,-0.0178,-0.0181,-0.0225,-0.0225,-0.0224,-0.0151,0,0,0,0,0,0,0.0019,0.0018,0.0022,0.0001,-0.0004,-0.0004,-0.0031,-0.0037,-0.0045,-0.0049,-0.0093,-0.0101,-0.0131,-0.0152,-0.016,-0.0152,-0.0183,-0.0226,-0.0225,-0.0224,-0.0154,-0.0148,-0.0143,0,0,0,0,0,0.002,0.0033,0.0023,0.0022,0.0003,-0.0003,-0.0007,-0.0031,-0.0045,-0.0042,-0.0071,-0.01,-0.0153,-0.0154,-0.0163,-0.0156,-0.0226,-0.0225,-0.0224,-0.0157,-0.0149,-0.0143,0,0,0,0,0,0,0.0039,0.0029,0.0018,0.0027,0.0016,-0.0009,-0.0008,-0.0025,-0.0045,-0.0049,-0.0092,-0.0102,-0.0116,-0.0145,-0.0145,-0.0168,-0.0195,-0.0196,-0.0141,-0.0135,-0.0129,-0.0111,-0.0185,0,0,0,0,0,0.0047,0.0054,0.0038,0.0045,0.0042,0.0017,0.0011,-0.0002,-0.0022,-0.0032,-0.0063,-0.0095,-0.0118,-0.0133,-0.0159,-0.0169,-0.0206,-0.0172,-0.0166,-0.0161,-0.0153,-0.0202,-0.02,-0.0221,-0.0221,-0.0221,0,0,0.0057,0.0052,0.0055,0.0049,0.0037,0.0046,0.0012,0.0011,0.0017,-0.0038,-0.0042,-0.0076,-0.0117,-0.0127,-0.0137,-0.0151,-0.0174,-0.016,-0.0156,-0.015,-0.02,-0.0198,-0.0197,-0.022,-0.022,-0.022,0,0,0.0086,0.0076,0.0093,0.009,0.0081,0.0069,0.0072,0.0052,0.0041,0.0034,-0.0003,-0.0027,-0.0065,-0.009,-0.0109,-0.0089,-0.0143,-0.0101,-0.0059,-0.0106,-0.0105,-0.0104,-0.0144,-0.0147,-0.0099,-0.0099,-0.0099,0,0.0096,0.0115,0.0097,0.0113,0.0117,0.0084,0.0106,0.0093,0.0069,0.0064,0.0043,-0.0011,-0.0046,-0.0061,-0.0053,-0.0075,-0.0111,-0.0079,-0.0098,-0.0099,-0.0099,-0.014,-0.0145,-0.0095,-0.0096,-0.0096,-0.0096,0,0.0137,0.0153,0.0163,0.0174,0.0177,0.0188,0.0173,0.0171,0.015,0.0132,0.0111,0.0061,0.0029,0.0012,-0.0013,-0.003,-0.0057,-0.0085,-0.0113,-0.0092,-0.0137,-0.0143,-0.009,-0.0091,-0.0092,-0.0093,0,0,0.016,0.0188,0.0191,0.021,0.0211,0.0219,0.0232,0.0231,0.0242,0.0202,0.0205,0.0156,0.0122,0.0099,0.0055,0.0015,-0.0017,-0.0029,-0.0033,-0.0062,-0.0119,-0.0122,-0.0129,-0.0053,-0.0053,-0.0054,-0.0147,0,0.0196,0.0245,0.0247,0.0292,0.0315,0.0299,0.0316,0.031,0.0294,0.0287,0.0226,0.0211,0.0156,0.0144,0.0095,0.0013,-0.0031,0.0011,-0.0139,-0.0143,-0.0144,-0.0135,-0.0056,-0.0152,-0.0154,-0.0155,-0.0156,0,0.0235,0.0264,0.0317,0.0356,0.0364,0.0386,0.0407,0.0421,0.0402,0.0386,0.0352,0.0302,0.0248,0.0196,0.006,0.0088,-0.0004,-0.0076,-0.0083,-0.0113,-0.0157,-0.018,-0.0167,-0.0167,-0.0166,-0.0165,-0.0164,0,0.0262,0.0312,0.0358,0.0371,0.0407,0.0429,0.0449,0.045,0.0476,0.0454,0.0459,0.0374,0.0341,0.0214,0.0069,0.0062,-0.0088,-0.0121,-0.0213,-0.0215,-0.0217,-0.0217,-0.022,-0.022,-0.022,-0.022,-0.0219,0,0.0295,0.0333,0.0377,0.0402,0.0465,0.0474,0.0533,0.0539,0.0555,0.0591,0.0517,0.0512,0.0343,0.0238,0.0093,-0.0072,-0.0075,-0.02,-0.0237,-0.0184,-0.0179,-0.0222,-0.022,-0.0223,-0.0222,-0.0222,-0.0221,0,0.0314,0.0342,0.0403,0.0455,0.0482,0.0528,0.0605,0.0642,0.0651,0.0695,0.0694,0.0614,0.0476,0.0298,0.0092,-0.0029,-0.0194,-0.0256,-0.0173,-0.0205,-0.0297,-0.0291,-0.0365,-0.0366,-0.0366,-0.0367,-0.0367,0,0.0325,0.0358,0.0445,0.049,0.0519,0.0593,0.0646,0.0688,0.0731,0.0756,0.0773,0.0671,0.0589,0.0309,0.0107,-0.0169,-0.0215,-0.03,-0.0309,-0.0283,-0.0312,-0.0305,-0.0298,-0.0369,-0.0369,-0.0369,-0.0369,0,0.0342,0.0374,0.0422,0.0521,0.059,0.0678,0.0754,0.0795,0.0844,0.0859,0.0845,0.071,0.0554,0.0324,0.0111,-0.0092,-0.0243,-0.0309,-0.0309,-0.0318,-0.0288,-0.0315,-0.0307,-0.0372,-0.0371,-0.0371,-0.0371,0,0.0349,0.0385,0.0451,0.0538,0.0633,0.0722,0.0771,0.0824,0.0875,0.0901,0.0894,0.0737,0.0652,0.0363,0.0166,-0.003,-0.009,-0.0159,-0.0168,-0.0168,-0.0089,-0.0021,-0.0048,0,0,0,0,0,0.0348,0.0386,0.0463,0.0558,0.0655,0.0716,0.0821,0.0861,0.0915,0.0918,0.0914,0.0774,0.0505,0.0388,0.0191,0.0116,-0.015,-0.0124,-0.024,-0.0385,-0.0382,-0.0324,0,0,0,0,0,0,0.0344,0.0408,0.0449,0.0556,0.0625,0.0737,0.0807,0.0852,0.0856,0.0886,0.0747,0.0713,0.0443,0.0614,0.0182,0.0124,0.0021,-0.0242,-0.0246,-0.0387,-0.0384,-0.0382,-0.0321,0,0,0,0,0]}]]